Regional Weather Roundup
Issued by NWS Sioux Falls, SD

Home | Current Version | Previous Version | Text Only | Print | Product List | Glossary On
Versions: 1 2 3 4 5 6 7 8 9 10 11 12 13 14 15 16 17 18 19 20 21 22 23 24 25 26 27 28 29 30 31 32 33 34 35 36 37 38 39 40 41 42 43 44 45 46 47 48 49 50
000
ASUS43 KFSD 010602
RWRFSD

WEATHER ROUNDUP FOR SE SOUTH DAKOTA/SW MINNESOTA/NW IOWA
NATIONAL WEATHER SERVICE SIOUX FALLS SD
100 AM CDT SUN MAY 01 2016

NOTE: "FAIR" INDICATES FEW OR NO CLOUDS BELOW 12,000 FEET WITH NO
SIGNIFICANT WEATHER AND OR OBSTRUCTIONS TO VISIBILITY.


SDZ038>040-050-052>070-010700-
SOUTHEAST SOUTH DAKOTA

CITY           SKY/WX    TMP DP  RH WIND       PRES   REMARKS
BROOKINGS      CLOUDY    44  32  62 NE10      30.10R
CHAMBERLAIN    NOT AVBL
HURON          PTCLDY    44  36  73 NE9       30.13R
6HR MIN TEMP:  44; 6HR MAX TEMP:  51;

MADISON        CLOUDY    41  41 100 NE6       30.10R
MITCHELL       LGT RAIN  44  43  96 CALM      30.12S
6HR MIN TEMP:  44; 6HR MAX TEMP:  46; 6HR PCP:  0.20;

SIOUX FALLS    CLOUDY    44  41  89 NE10      30.09R
6HR MIN TEMP:  44; 6HR MAX TEMP:  44; 6HR PCP:  0.03;

WINNER         LGT RAIN  43  40  89 N6        30.15R
YANKTON        CLOUDY    45  39  81 NE18G25   30.05R
$$

MNZ071-072-080-081-089-090-097-098-010700-
SOUTHWEST MINNESOTA

CITY           SKY/WX    TMP DP  RH WIND       PRES   REMARKS
FAIRMONT       CLOUDY    43  36  75 NE16      30.06S
JACKSON        LGT SNOW  43  39  87 NE18G26   30.07S
LUVERNE        DRIZZLE   43  37  81 NE9       30.09R
MARSHALL       CLOUDY    45  33  63 NE10      30.12R
6HR MIN TEMP:  45; 6HR MAX TEMP:  48;

MONTEVIDEO     CLOUDY    45  30  57 E13       30.15S
REDWOOD FALLS  CLOUDY    47  30  51 NE8       30.11R
TRACY          DRIZZLE   45  42  89 E9        30.11R
WINDOM         DRIZZLE   43  43 100 NE7       30.09S
WORTHINGTON    LGT RAIN  42  40  92 NE16      30.08R
$$

IAZ001>003-012>014-020>022-031-032-NEZ013-014-SDZ071-010700-
NORTHWEST IOWA

CITY           SKY/WX    TMP DP  RH WIND       PRES   REMARKS
DENISON        CLOUDY    43  43 100 E18G25    29.94R FOG
ESTHERVILLE    CLOUDY    42  40  92 NE20      30.05R
SIOUX CITY     LGT RAIN  45  41  86 NE17      29.99R
6HR MIN TEMP:  45; 6HR MAX TEMP:  47; 6HR PCP:  0.19;

SPENCER        CLOUDY    42  40  92 NE20      30.04R FOG
6HR MIN TEMP:  42; 6HR MAX TEMP:  43; 6HR PCP:  0.01;

STORM LAKE     CLOUDY    41  41 100 NE23      29.99R
$$

ABBREVIATIONS USED IN REMARKS
   TC - TEMPERATURE IN CELSIUS
  WCI - WIND CHILL INDEX
   HX - HEAT INDEX
  VSB - VISIBILITY





USA.gov is the U.S. government's official web portal to all federal, state and local government web resources and services.